Weather Roundup
Issued by NWS Springfield, MO

Home | Current Version | Previous Version | Text Only | Print | Product List | Glossary On
Versions: 1 2 3 4 5 6 7 8 9 10 11 12 13 14 15 16 17 18 19 20 21 22 23 24 25 26 27 28 29 30 31 32 33 34 35 36 37 38 39 40 41 42 43 44 45 46 47 48 49 50
000
NZUS99 KSGF 301307
HRRSGF

HOURLY WEATHER
NATIONAL WEATHER SERVICE SPRINGFIELD MO
800 AM CDT THU OCT 30 2014

......SGF CWA......

CITY           SKY/WX    TMP DP  RH WIND       PRES   REMARKS
SPRINGFIELD    PTCLDY    45  36  70 S10       30.09F
JOPLIN         PTCLDY    52  40  63 S10       30.07F
WEST PLAINS    CLEAR     41  30  65 CALM      30.15S
ROLLA          CLEAR     41  31  67 S9        30.09S
OSAGE BEACH    CLEAR     41  32  70 SE7       30.08S
BRANSON        PTCLDY    37  36  93 CALM      30.13R

......SURROUNDING SGF CWA......

CITY           SKY/WX    TMP DP  RH WIND       PRES   REMARKS
CHANUTE        MOCLDY    52  42  69 S15       30.03F
PARSONS        MOCLDY    49  43  80 S7        30.07S
COFFEYVILLE    PTCLDY    48  43  82 S8        30.07S
EMPORIA        MOCLDY    51  37  58 W12       30.01R
GROVE OK       PTCLDY    41  41 100 CALM      30.11F
ROGERS AR        N/A    N/A N/A N/A MISG        N/A
SILOAM SPRINGS CLEAR     43  34  70 SE6       30.13S
HARRISON AR    CLEAR     41  39  93 E5        30.13S
NEAR YELLVILLE CLEAR     36  30  80 CALM      30.14S

......KANSAS AND MISSOURI......

CITY           SKY/WX    TMP DP  RH WIND       PRES   REMARKS
KANSAS CTY INT MOCLDY    48  41  76 S8        30.00S HAZE
DOWNTOWN KC    MOCLDY    54  40  59 NW6       30.01R
COLUMBIA       MOCLDY    41  35  79 SE10      30.08F
SEDALIA        CLOUDY    48  36  63 S8        30.06S
ST JOSEPH      CLOUDY    44  39  82 E3        29.99F
ST LOUIS       PTCLDY    42  36  79 E5        30.15S
SPIRIT OF STL  PTCLDY    34  33  96 CALM      30.13F
KIRKSVILLE     LGT RAIN  44  39  82 SE14      30.06F
WICHITA        PTCLDY    46  35  65 SW8       30.06R
TOPEKA         MOCLDY    51  40  65 CALM      30.01R
OLATHE         MOCLDY    49  41  74 S8        30.00F

......TENNESSEE......

CITY           SKY/WX    TMP DP  RH WIND       PRES   REMARKS
MEMPHIS        PTCLDY    46  40  79 E3        30.17R
NASHVILLE      CLEAR     42  40  92 CALM      30.17S

......ARKANSAS.......

CITY           SKY/WX    TMP DP  RH WIND       PRES   REMARKS
FAYETTEVILLE   CLEAR     36  36 100 MISG      30.14R
FT SMITH       CLEAR     45  42  89 E3        30.15R
LITTLE ROCK    CLEAR     47  43  86 CALM      30.17F

......OKLAHOMA.......

CITY           SKY/WX    TMP DP  RH WIND       PRES   REMARKS
TULSA          PTCLDY    54  42  64 S9        30.08S
PONCA CITY     PTCLDY    50  39  66 SW5       30.10R
MCALESTER      MOCLDY    48  41  76 S5        30.14S
OKLAHOMA CITY  PTCLDY    46  40  79 S7        30.12R

......IOWA............

CITY           SKY/WX    TMP DP  RH WIND       PRES   REMARKS
DES MOINES     MOCLDY    44  35  70 SE12      30.02F
QUAD CITIES    MOCLDY    34  31  88 E3        30.10F

......ILLINOIS........

CITY           SKY/WX    TMP DP  RH WIND       PRES   REMARKS
QUINCY         CLOUDY    43  35  73 SE7       30.10S
CHICAGO        MOCLDY    34  31  88 CALM      30.13S




USA.gov is the U.S. government's official web portal to all federal, state and local government web resources and services.